Change the Weather History Date:

Monday, March 4, 2013

  Actual Average Record
Temperature  
Mean Temperature 41 °F 47 °F  
Max Temperature 50 °F 57 °F 82 °F (2004)
Min Temperature 32 °F 37 °F 16 °F (1943)
Degree Days  
Heating Degree Days 24 18  
Month to date heating degree days 93 74  
Since 1 July heating degree days 2102 2546  
Cooling Degree Days 0 0  
Month to date cooling degree days 0 0  
Year to date cooling degree days 5 2  
Growing Degree Days 0 (Base 50)    
Moisture  
Dew Point 19 °F    
Average Humidity 44    
Maximum Humidity 61    
Minimum Humidity 27    
Precipitation  
Precipitation 0.00 in 0.10 in 1.40 in (1966)
Month to date precipitation 0.00 0.41  
Year to date precipitation 5.05 6.85  
Snow  
Snow 0.00 in - 0.00 in (2002)
Month to date snowfall 0.0  
Since 1 July snowfall T  
Snow Depth 0.00 in    
Sea Level Pressure  
Sea Level Pressure 30.00 in    
Wind  
Wind Speed 11 mph (WNW)    
Max Wind Speed 22 mph    
Max Gust Speed 29 mph    
Visibility 10 miles    
Events      
T = Trace of Precipitation, MM = Missing Value Source: NWS Daily Summary

Daily Weather History Graph

Daily Weather History Graph

Search for Another Location

Airport or City:

Trip Planner

Search our weather history database for the weather conditions in past years. The results will help you decide how hot, cold, wet, or windy it might be!

Date:

Astronomy

Mar. 04, 2013 Rise Set
Actual Time 6:30 AM EST 6:02 PM EST
Civil Twilight 6:04 AM EST 6:28 PM EST
Nautical Twilight 5:35 AM EST 6:58 PM EST
Astronomical Twilight 5:05 AM EST 7:27 PM EST
Moon 12:30 AM EST 10:49 AM EST
Length of Visible Light 12h 23m
Length of Day
11h 31m
Waning Gibbous, 52% of the Moon is Illuminated
Mar 4
Waning Gibbous
Mar 4
Last Quarter
Mar 11
New
Mar 19
First Quarter
Mar 27
Full

Hourly Weather History & Observations

Time (EST) Temp. Windchill Dew Point Humidity Pressure Visibility Wind Dir Wind Speed Gust Speed Precip Events Conditions
12:54 AM 37.9 °F 30.0 °F 23.0 °F 55% 29.92 in 10.0 mi NNW 12.7 mph - N/A   Clear
1:54 AM 37.0 °F 28.1 °F 21.0 °F 52% 29.92 in 10.0 mi NNW 15.0 mph - N/A   Clear
2:54 AM 37.0 °F 28.1 °F 19.9 °F 50% 29.92 in 10.0 mi NNW 15.0 mph - N/A   Clear
3:54 AM 35.1 °F 26.4 °F 19.0 °F 52% 29.94 in 10.0 mi NNW 12.7 mph - N/A   Scattered Clouds
4:54 AM 35.1 °F 27.4 °F 18.0 °F 50% 29.96 in 10.0 mi NNW 10.4 mph 19.6 mph N/A   Scattered Clouds
5:54 AM 33.1 °F 27.7 °F 19.0 °F 56% 29.99 in 10.0 mi WNW 5.8 mph - N/A   Overcast
7:54 AM 36.0 °F 28.5 °F 19.9 °F 52% 30.03 in 10.0 mi NW 10.4 mph - N/A   Scattered Clouds
8:54 AM 37.9 °F 29.2 °F 19.0 °F 47% 30.04 in 10.0 mi NW 15.0 mph 21.9 mph N/A   Clear
9:54 AM 39.9 °F 32.1 °F 19.0 °F 43% 30.04 in 10.0 mi NW 13.8 mph 23.0 mph N/A   Clear
10:54 AM 43.0 °F 35.7 °F 19.9 °F 40% 30.04 in 10.0 mi NW 15.0 mph - N/A   Clear
11:54 AM 44.1 °F 37.4 °F 19.0 °F 37% 30.02 in 10.0 mi WNW 13.8 mph 24.2 mph N/A   Clear
12:54 PM 46.0 °F 40.2 °F 17.1 °F 31% 30.00 in 10.0 mi WNW 12.7 mph 25.3 mph N/A   Clear
1:54 PM 48.0 °F - 17.1 °F 29% 29.98 in 10.0 mi West 11.5 mph 20.7 mph N/A   Clear
2:54 PM 48.9 °F - 17.1 °F 28% 29.98 in 10.0 mi West 16.1 mph 25.3 mph N/A   Clear
3:54 PM 50.0 °F - 18.0 °F 28% 29.97 in 10.0 mi West 13.8 mph 25.3 mph N/A   Clear
4:54 PM 48.9 °F - 17.1 °F 28% 29.97 in 10.0 mi West 9.2 mph 21.9 mph N/A   Clear
5:54 PM 45.0 °F 40.1 °F 19.9 °F 37% 29.99 in 10.0 mi West 9.2 mph - N/A   Clear
6:54 PM 41.0 °F 36.4 °F 19.0 °F 41% 30.01 in 10.0 mi West 6.9 mph - N/A   Clear
7:54 PM 42.1 °F 38.4 °F 19.0 °F 40% 30.03 in 10.0 mi WSW 5.8 mph - N/A   Clear
8:54 PM 39.0 °F 33.4 °F 21.0 °F 49% 30.04 in 10.0 mi WSW 8.1 mph - N/A   Clear
9:54 PM 39.0 °F 34.0 °F 19.0 °F 45% 30.05 in 10.0 mi WSW 6.9 mph - N/A   Clear
10:54 PM 39.0 °F 32.8 °F 19.0 °F 45% 30.06 in 10.0 mi WSW 9.2 mph - N/A   Clear
11:54 PM 37.9 °F 32.1 °F 19.9 °F 48% 30.05 in 10.0 mi WSW 8.1 mph - N/A   Clear